Location: Paderno d�Adda
(45.6667°N, 9.4333°E)
Time: 14:14:23
(UTC+00:00)

Exosat Rocket - Pass Details

Date: 19 September 2020
Orbit: 760 x 2514 km, 72.3° (Epoch: 30 October)

Event Time Altitude Azimuth Distance (km) Brightness Sun altitude
Rises 18:46:33 0° 179° (S) 3,751 6.9 -14.8°
Reaches altitude 10° 18:49:30 10° 171° (S) 2,619 6.0 -15.3°
Maximum altitude 18:54:38 35° 106° (ESE) 1,272 4.1 -16.2°
Drops below altitude 10° 18:59:11 10° 41° (NE) 2,304 5.8 -16.9°
Sets 19:01:37 0° 32° (NNE) 3,239 6.6 -17.3°
